1517508000.94,12189,8.94,72132.8,-6.61,-7.61,-7.57,0,*57
1517508002.22,12190,8.94,72130.5,-6.63,-7.69,-7.61,0,*50
1517508003.47,12191,8.94,72120.0,-6.61,-7.57,-7.57,0,*5B
1517508004.72,12192,8.94,72120.8,-6.61,-7.57,-7.57,0,*58
1517508005.94,12193,8.94,72118.0,-6.61,-7.49,-7.57,0,*56
1517508007.16,12194,8.94,72114.0,-6.63,-7.49,-7.49,0,*5C
1517508008.44,12195,8.94,72112.3,-6.63,-7.57,-7.57,0,*5D
1517508009.66,12196,8.94,72118.3,-6.61,-7.57,-7.49,0,*53
1517508010.91,12197,8.94,72112.8,-6.61,-7.57,-7.57,0,*5D
1517508012.16,12198,8.94,72118.5,-6.61,-7.61,-7.57,0,*57
1517508013.39,12199,8.94,72124.8,-6.61,-7.57,-7.49,0,*5C
1517508014.66,12200,8.94,72128.0,-6.63,-7.61,-7.57,0,*57
1517508015.89,12201,8.94,72142.3,-6.61,-7.57,-7.49,0,*5E
1517508017.14,12202,8.94,72142.8,-6.61,-7.61,-7.61,0,*52
1517508018.33,12203,8.94,72142.0,-6.61,-7.49,-7.49,0,*53
1517508019.52,12204,8.94,72146.3,-6.61,-7.49,-7.49,0,*54
1517508020.77,12205,8.94,72148.5,-6.61,-7.57,-7.57,0,*55
1517508022.03,12206,8.94,72146.8,-6.61,-7.57,-7.57,0,*56
1517508023.28,12207,8.94,72146.3,-6.61,-7.61,-7.57,0,*52
1517508024.52,12208,8.94,72136.3,-6.61,-7.69,-7.61,0,*50
1517508025.77,12209,8.94,72136.3,-6.61,-7.69,-7.57,0,*54
1517508027.04,12210,8.94,72136.0,-6.63,-7.69,-7.61,0,*5B
1517508028.29,12211,8.94,72142.8,-6.61,-7.61,-7.69,0,*58
1517508029.51,12212,8.94,72140.3,-6.61,-7.61,-7.49,0,*59
1517508030.73,12213,8.94,72142.5,-6.61,-7.49,-7.57,0,*5D
1517508031.92,12214,8.94,72144.0,-6.61,-7.49,-7.49,0,*55
1517508033.11,12215,8.94,72150.0,-6.61,-7.49,-7.49,0,*54
1517508034.33,12216,8.94,72154.5,-6.61,-7.61,-7.49,0,*5D
1517508035.58,12217,8.94,72154.8,-6.61,-7.61,-7.61,0,*56
1517508036.83,12218,8.94,72156.3,-6.61,-7.61,-7.57,0,*5C
1517508038.03,12219,8.94,72158.8,-6.59,-7.53,-7.53,0,*53
1517508039.22,12220,8.94,72156.3,-6.59,-7.53,-7.53,0,*59
1517508040.48,12221,8.94,72154.3,-6.59,-7.43,-7.43,0,*58
1517508041.68,12222,8.94,72154.0,-6.59,-7.53,-7.53,0,*5B
1517508042.9,12223,8.94,72154.0,-6.61,-7.57,-7.49,0,*5E
1517508044.15,12224,8.94,72154.0,-6.61,-7.69,-7.61,0,*5E
1517508045.37,12225,8.94,72150.0,-6.61,-7.61,-7.49,0,*5D
1517508046.62,12226,8.94,72150.0,-6.61,-7.61,-7.61,0,*54
1517508047.87,12227,8.94,72146.8,-6.61,-7.69,-7.57,0,*58
1517508049.12,12228,8.88,72144.5,-6.59,-7.65,-7.57,0,*50
1517508050.38,12229,8.94,72144.5,-6.59,-7.65,-7.65,0,*50
1517508051.63,12230,8.94,72144.3,-6.59,-7.65,-7.57,0,*59
1517508052.89,12231,8.94,72142.3,-6.59,-7.57,-7.57,0,*59
1517508054.17,12232,8.94,72138.3,-6.57,-7.57,-7.65,0,*55
1517508055.43,12233,8.94,72140.0,-6.59,-7.57,-7.57,0,*5B
1517508056.68,12234,8.94,72154.0,-6.59,-7.65,-7.65,0,*5C
1517508057.93,12235,8.94,72150.3,-6.59,-7.69,-7.65,0,*51
1517508059.19,12236,8.94,72154.3,-6.59,-7.65,-7.65,0,*5E
1517508060.43,12237,8.94,72146.8,-6.59,-7.69,-7.69,0,*5F
1517508061.68,12238,8.94,72140.3,-6.61,-7.69,-7.69,0,*5B
1517508062.92,12239,8.94,72134.0,-6.61,-7.69,-7.61,0,*52
1517508064.17,12240,8.94,72136.0,-6.61,-7.61,-7.57,0,*51
1517508065.42,12241,8.88,72120.5,-6.61,-7.61,-7.69,0,*5D
1517508066.64,12242,8.94,72128.3,-6.61,-7.83,-7.69,0,*52
1517508067.88,12243,8.88,72138.3,-6.61,-7.69,-7.61,0,*5F
1517508069.13,12244,8.94,72148.8,-6.61,-7.69,-7.61,0,*58
1517508070.38,12245,8.94,72142.0,-6.61,-7.73,-7.69,0,*5A
1517508071.6,12246,8.94,72144.3,-6.61,-7.83,-7.69,0,*56
1517508072.84,12247,8.94,72150.0,-6.61,-7.95,-7.69,0,*50
1517508074.07,12248,8.94,72146.0,-6.59,-7.91,-7.83,0,*54
1517508075.34,12249,8.94,72150.0,-6.57,-7.95,-7.91,0,*5C
1517508076.57,12250,8.94,72150.0,-6.59,-7.95,-7.83,0,*59
1517508077.8,12251,8.94,72148.3,-6.59,-7.95,-7.83,0,*58
1517508079.03,12252,8.94,72138.8,-6.59,-7.95,-7.83,0,*5B
1517508080.28,12253,8.94,72142.5,-6.59,-7.95,-7.77,0,*51
1517508081.52,12254,8.94,72140.5,-6.61,-7.99,-7.95,0,*5D
1517508082.77,12255,8.94,72146.0,-6.59,-7.95,-7.91,0,*5F
1517508084.05,12256,8.88,72142.3,-6.57,-7.95,-7.91,0,*52
1517508085.27,12257,8.94,72148.0,-6.61,-8.07,-7.83,0,*51
1517508086.5,12258,8.94,72142.0,-6.59,-8.03,-7.83,0,*51
1517508087.75,12259,8.94,72140.8,-6.59,-7.95,-7.91,0,*53
1517508088.98,12260,8.94,72128.5,-6.59,-7.95,-7.83,0,*5A
1517508090.22,12261,8.94,72134.0,-6.61,-7.99,-7.95,0,*5B
1517508091.49,12262,8.94,72148.0,-6.63,-7.95,-7.95,0,*56
1517508092.71,12263,8.94,72140.3,-6.61,-8.07,-7.87,0,*52
1517508093.94,12264,8.94,72142.5,-6.61,-7.99,-7.87,0,*5D
1517508095.14,12265,8.94,72142.5,-6.61,-7.87,-7.87,0,*53
1517508096.38,12266,8.94,72148.8,-6.61,-7.99,-7.99,0,*50
1517508097.62,12267,8.94,72140.0,-6.61,-7.95,-7.99,0,*5D
1517508098.9,12268,8.94,72144.5,-6.63,-8.07,-7.99,0,*54
1517508100.14,12269,8.94,72154.0,-6.61,-7.99,-7.99,0,*5F
1517508101.42,12270,8.94,72156.8,-6.63,-8.11,-7.99,0,*5A
1517508102.66,12271,8.94,72164.5,-6.61,-7.99,-7.99,0,*56
1517508103.91,12272,8.94,72166.8,-6.61,-8.11,-7.99,0,*5A
1517508105.13,12273,8.88,72152.8,-6.61,-7.99,-7.87,0,*5B
1517508106.35,12274,8.94,72166.8,-6.61,-7.87,-7.73,0,*58
1517508107.58,12275,8.88,72168.3,-6.61,-7.73,-7.83,0,*5D
1517508108.78,12276,8.94,72170.8,-6.61,-7.83,-7.83,0,*51
1517508110.03,12277,8.94,72172.0,-6.63,-7.83,-7.73,0,*5D
1517508111.25,12278,8.94,72168.0,-6.61,-7.83,-7.95,0,*58
1517508112.45,12279,8.88,72164.8,-6.61,-7.83,-7.87,0,*5A
1517508113.67,12280,8.94,72164.3,-6.61,-7.95,-7.87,0,*5B
1517508114.87,12281,8.94,72158.0,-6.61,-7.87,-7.87,0,*59
1517508116.07,12282,8.94,72156.0,-6.61,-7.87,-7.83,0,*5E
1517508117.31,12283,8.94,72158.5,-6.63,-7.87,-7.73,0,*52
1517508118.54,12284,8.94,72156.5,-6.61,-7.83,-7.73,0,*53
1517508119.81,12285,8.94,72156.0,-6.63,-7.73,-7.69,0,*54
1517508121.05,12286,8.88,72158.0,-6.61,-7.69,-7.69,0,*5E
1517508122.32,12287,8.94,72160.0,-6.63,-7.69,-7.69,0,*5D
1517508123.58,12288,8.94,72166.0,-6.61,-7.61,-7.61,0,*50
1517508124.82,12289,8.94,72164.5,-6.63,-7.69,-7.83,0,*57
1517508126.05,12290,8.88,72164.0,-6.61,-7.83,-7.73,0,*56
1517508127.31,12291,8.94,72156.8,-6.63,-7.95,-7.95,0,*5A
1517508128.56,12292,8.94,72138.8,-6.61,-7.99,-7.95,0,*57
1517508129.8,12293,8.88,72132.8,-6.61,-8.07,-7.95,0,*5E
1517508131.02,12294,8.88,72136.0,-6.61,-7.95,-7.87,0,*5E
1517508132.29,12295,8.94,72146.5,-6.63,-7.99,-7.95,0,*52
1517508133.54,12296,8.94,72148.5,-6.63,-7.99,-7.87,0,*52
1517508134.82,12297,8.94,72152.3,-6.63,-8.07,-7.99,0,*54
1517508136.04,12298,8.94,72150.8,-6.61,-8.21,-7.99,0,*5D
1517508137.28,12299,8.94,72148.5,-6.61,-8.11,-7.99,0,*5F
1517508138.51,12300,8.88,72146.5,-6.61,-8.07,-7.83,0,*52
1517508139.75,12301,8.94,72142.8,-6.61,-7.99,-7.95,0,*5C
1517508140.95,12302,8.94,72152.8,-6.61,-7.87,-7.83,0,*57
1517508142.15,12303,8.88,72154.0,-6.61,-7.87,-7.83,0,*56
1517508143.4,12304,8.94,72158.8,-6.63,-7.95,-7.87,0,*54
1517508144.67,12305,8.94,72156.8,-6.63,-8.07,-7.95,0,*52
1517508145.9,12306,8.94,72148.0,-6.61,-8.11,-7.87,0,*57
1517508147.14,12307,8.88,72142.3,-6.61,-7.99,-7.95,0,*5A
1517508148.39,12308,8.94,72146.3,-6.63,-7.99,-7.83,0,*50
1517508149.64,12309,8.94,72156.8,-6.61,-7.95,-7.73,0,*50
1517508150.91,12310,8.94,72158.5,-6.63,-8.07,-7.95,0,*56
1517508152.16,12311,8.94,72156.5,-6.63,-8.07,-7.87,0,*54
1517508153.42,12312,8.94,72162.3,-6.63,-8.07,-7.87,0,*57
1517508154.69,12313,8.94,72154.0,-6.63,-8.11,-7.99,0,*5E
1517508155.94,12314,8.94,72160.5,-6.63,-8.11,-7.87,0,*56
1517508157.17,12315,8.94,72160.0,-6.63,-7.87,-7.83,0,*53
1517508158.42,12316,8.94,72158.0,-6.63,-7.95,-7.83,0,*53
1517508159.62,12317,8.94,72146.5,-6.61,-7.87,-7.87,0,*57
1517508160.89,12318,8.88,72142.0,-6.63,-7.95,-7.95,0,*5A
1517508162.13,12319,8.88,72152.0,-6.63,-7.95,-7.87,0,*58
1517508163.4,12320,8.88,72160.3,-6.63,-7.95,-7.95,0,*51
1517508164.63,12321,8.94,72164.3,-6.63,-7.87,-7.87,0,*50
1517508165.85,12322,8.88,72148.8,-6.63,-7.87,-7.83,0,*57
1517508167.08,12323,8.94,72148.8,-6.63,-7.83,-7.83,0,*52
1517508168.3,12324,8.94,72148.8,-6.61,-7.83,-7.73,0,*58
1517508169.5,12325,8.94,72152.5,-6.61,-7.83,-7.83,0,*56
1517508170.73,12326,8.94,72154.5,-6.63,-7.87,-7.83,0,*53
1517508171.92,12327,8.88,72152.3,-6.61,-7.87,-7.87,0,*54
1517508173.12,12328,8.94,72152.3,-6.61,-7.87,-7.87,0,*5B
1517508174.35,12329,8.94,72156.0,-6.63,-7.87,-7.87,0,*58
1517508175.57,12330,8.94,72162.0,-6.63,-7.87,-7.83,0,*54
1517508176.8,12331,8.94,72158.3,-6.61,-7.83,-7.73,0,*5C
1517508178.02,12332,8.94,72154.5,-6.63,-7.83,-7.83,0,*52
1517508179.27,12333,8.94,72150.3,-6.63,-7.95,-7.87,0,*50
1517508180.5,12334,8.94,72154.3,-6.63,-7.87,-7.87,0,*54
1517508181.72,12335,8.88,72154.0,-6.63,-7.87,-7.87,0,*55
1517508182.95,12336,8.94,72156.8,-6.63,-7.83,-7.87,0,*52
1517508184.19,12337,8.88,72150.5,-6.63,-7.87,-7.95,0,*54
1517508185.42,12338,8.88,72150.8,-6.63,-7.87,-7.87,0,*58
1517508186.68,12339,8.94,72140.5,-6.63,-7.95,-7.95,0,*59
1517508187.96,12340,8.94,72134.8,-6.63,-7.99,-7.99,0,*57
1517508189.23,12341,8.88,72130.5,-6.63,-7.95,-7.99,0,*5A
1517508190.45,12342,8.94,72142.3,-6.63,-7.87,-7.87,0,*55
1517508191.7,12343,8.88,72140.8,-6.63,-7.95,-7.87,0,*57
1517508192.94,12344,8.88,72146.5,-6.63,-7.87,-7.95,0,*50
1517508194.19,12345,8.94,72148.0,-6.63,-7.95,-7.87,0,*51
1517508195.44,12346,8.88,72156.8,-6.65,-7.99,-7.99,0,*57
1517508196.71,12347,8.94,72166.8,-6.63,-7.95,-7.95,0,*50
1517508197.93,12348,8.94,72160.5,-6.65,-7.99,-7.87,0,*56
1517508199.16,12349,8.88,72152.3,-6.65,-7.99,-7.87,0,*57
1517508200.41,12350,8.88,72142.8,-6.65,-7.91,-7.99,0,*58
1517508201.65,12351,8.94,72142.5,-6.65,-7.99,-7.99,0,*51
1517508202.9,12352,8.94,72142.0,-6.65,-7.91,-7.91,0,*52
1517508204.15,12353,8.94,72148.8,-6.65,-7.77,-7.77,0,*53
1517508205.39,12354,8.94,72152.0,-6.65,-7.91,-7.99,0,*5C
1517508206.62,12355,8.88,72154.8,-6.65,-7.91,-7.87,0,*52
1517508207.86,12356,8.94,72156.5,-6.65,-7.91,-7.77,0,*5E
1517508209.09,12357,8.88,72150.8,-6.65,-7.87,-7.77,0,*58
1517508210.29,12358,8.88,72150.8,-6.65,-7.87,-7.87,0,*58
1517508211.54,12359,8.88,72148.3,-6.65,-7.91,-7.77,0,*51
1517508212.78,12360,8.94,72150.3,-6.65,-7.91,-7.77,0,*5B
1517508214.04,12361,8.94,72148.5,-6.65,-7.77,-7.73,0,*56
1517508215.29,12362,8.94,72150.3,-6.65,-7.77,-7.73,0,*55
1517508216.53,12363,8.94,72150.8,-6.65,-7.77,-7.65,0,*53
1517508217.76,12364,8.88,72148.8,-6.65,-7.87,-7.73,0,*5C
1517508218.99,12365,8.94,72156.0,-6.65,-7.87,-7.77,0,*59
1517508220.23,12366,8.94,72158.3,-6.65,-7.99,-7.91,0,*5D
1517508221.51,12367,8.88,72152.0,-6.67,-8.11,-7.99,0,*59
1517508222.76,12368,8.88,72142.3,-6.65,-8.11,-8.03,0,*58
1517508224.0,12369,8.94,72142.3,-6.65,-8.03,-7.91,0,*5E
1517508225.22,12370,8.94,72140.3,-6.65,-8.03,-7.87,0,*51
1517508226.47,12371,8.88,72142.0,-6.65,-7.99,-7.77,0,*53
1517508227.72,12372,8.88,72140.8,-6.63,-7.99,-7.83,0,*5D
1517508228.97,12373,8.94,72136.8,-6.63,-7.95,-7.83,0,*50
1517508230.22,12374,8.94,72142.3,-6.63,-7.95,-7.83,0,*57
1517508231.5,12375,8.88,72150.0,-6.67,-8.11,-7.91,0,*52
1517508232.75,12376,8.94,72152.5,-6.65,-8.11,-7.91,0,*53
1517508234.0,12377,8.94,72154.8,-6.65,-8.11,-7.99,0,*5A
1517508235.28,12378,8.88,72152.5,-6.67,-8.11,-7.99,0,*57
1517508236.53,12379,8.88,72146.5,-6.65,-8.11,-7.99,0,*54
1517508237.76,12380,8.94,72150.8,-6.65,-8.17,-8.11,0,*5B
1517508239.0,12381,8.94,72140.5,-6.65,-8.11,-8.03,0,*5F
1517508240.2,12382,8.94,72138.0,-6.65,-8.25,-8.25,0,*5F
1517508241.4,12383,8.88,72124.5,-6.65,-8.25,-8.25,0,*5E
1517508242.59,12384,8.88,72134.5,-6.65,-8.29,-8.29,0,*59
1517508243.79,12385,8.94,72132.8,-6.65,-8.29,-8.17,0,*55
1517508245.01,12386,8.88,72130.0,-6.65,-8.17,-8.03,0,*5E
1517508246.28,12387,8.94,72128.0,-6.67,-8.03,-7.91,0,*5C
1517508247.53,12388,8.88,72124.8,-6.65,-7.99,-7.91,0,*5D
1517508248.75,12389,8.88,72130.0,-6.65,-7.87,-7.91,0,*53
1517508250.0,12390,8.88,72132.3,-6.65,-7.77,-7.91,0,*54
1517508251.25,12391,8.94,72142.8,-6.65,-7.77,-7.77,0,*5D
1517508252.47,12392,8.94,72144.8,-6.65,-7.87,-7.91,0,*59
1517508253.69,12393,8.94,72138.5,-6.65,-7.87,-7.99,0,*50
1517508254.94,12394,8.88,72122.8,-6.65,-7.99,-8.03,0,*54
1517508256.18,12395,8.88,72110.3,-6.65,-7.99,-8.03,0,*55
1517508257.42,12396,8.88,72114.8,-6.65,-7.91,-8.03,0,*5E
1517508258.67,12397,8.88,72120.8,-6.67,-8.03,-8.17,0,*5C
1517508259.92,12398,8.94,72138.0,-6.65,-8.11,-8.11,0,*54
1517508261.14,12399,8.94,72128.8,-6.67,-8.17,-8.25,0,*56
1517508262.37,12400,8.88,72140.5,-6.67,-8.37,-8.37,0,*50
1517508263.6,12401,8.88,72128.3,-6.67,-8.55,-8.55,0,*51
1517508264.79,12402,8.94,72140.8,-6.65,-8.55,-8.59,0,*5C
1517508265.98,12403,8.94,72142.3,-6.65,-8.59,-8.55,0,*5D
1517508267.2,12404,8.94,72124.3,-6.67,-8.59,-8.59,0,*54
1517508268.4,12405,8.88,72132.5,-6.65,-8.41,-8.41,0,*57
1517508269.6,12406,8.88,72150.5,-6.65,-8.29,-8.29,0,*54
1517508270.79,12407,8.94,72148.5,-6.65,-8.25,-8.25,0,*55
1517508271.99,12408,8.88,72144.8,-6.65,-8.17,-8.17,0,*5A
1517508273.27,12409,8.88,72158.8,-6.67,-8.11,-8.11,0,*59
1517508274.49,12410,8.94,72152.8,-6.65,-8.11,-8.25,0,*54
1517508275.72,12411,8.88,72150.8,-6.67,-8.25,-8.25,0,*50
1517508276.91,12412,8.88,72146.3,-6.65,-8.17,-8.17,0,*51
1517508278.17,12413,8.88,72146.3,-6.65,-8.11,-8.11,0,*50
1517508279.44,12414,8.88,72152.5,-6.67,-7.99,-8.11,0,*5A
1517508280.69,12415,8.88,72150.5,-6.65,-7.99,-8.11,0,*59
1517508281.91,12416,8.88,72162.5,-6.65,-8.11,-8.25,0,*52
1517508283.12,12417,8.88,72168.3,-6.65,-8.17,-8.37,0,*56
1517508284.32,12418,8.94,72170.8,-6.65,-8.25,-8.45,0,*5D
1517508285.51,12419,8.88,72152.8,-6.65,-8.45,-8.55,0,*5B
1517508286.71,12420,8.88,72152.8,-6.65,-8.55,-8.59,0,*5C
1517508287.92,12421,8.88,72154.5,-6.67,-8.59,-8.55,0,*5F
1517508289.12,12422,8.88,72150.0,-6.65,-8.67,-8.45,0,*52
1517508290.32,12423,8.94,72158.8,-6.65,-8.71,-8.59,0,*59
1517508291.52,12424,8.88,72150.3,-6.65,-8.71,-8.67,0,*53
1517508292.77,12425,8.88,72146.8,-6.67,-8.85,-8.81,0,*53
1517508294.01,12426,8.88,72146.5,-6.67,-8.81,-8.71,0,*5B
1517508295.24,12427,8.88,72148.3,-6.67,-8.93,-8.71,0,*59
1517508296.46,12428,8.88,72154.0,-6.67,-8.97,-8.71,0,*52
1517508297.69,12429,8.88,72152.0,-6.65,-9.05,-8.81,0,*54
1517508298.91,12430,8.94,72154.5,-6.67,-9.05,-8.67,0,*56
1517508300.13,12431,8.88,72150.8,-6.67,-9.05,-8.67,0,*57
1517508301.35,12432,8.88,72156.8,-6.67,-8.93,-8.67,0,*5A
1517508302.57,12433,8.88,72156.5,-6.67,-8.97,-8.55,0,*5E
1517508303.77,12434,8.88,72148.3,-6.65,-8.97,-8.41,0,*5E
1517508304.97,12435,8.94,72156.5,-6.65,-8.85,-8.41,0,*5C
1517508306.21,12436,8.94,72160.8,-6.67,-8.71,-8.37,0,*57
1517508307.43,12437,8.94,72160.5,-6.67,-8.59,-8.29,0,*53
1517508308.65,12438,8.88,72154.8,-6.67,-8.59,-8.29,0,*5C
1517508309.88,12439,8.88,72156.8,-6.67,-8.45,-8.17,0,*5D
1517508311.1,12440,8.94,72154.8,-6.67,-8.37,-8.25,0,*57
1517508312.35,12441,8.88,72152.0,-6.67,-8.29,-8.11,0,*5E
1517508313.6,12442,8.88,72148.3,-6.67,-8.29,-8.11,0,*5D
1517508314.85,12443,8.88,72150.3,-6.67,-8.29,-8.03,0,*5F
1517508316.07,12444,8.88,72142.5,-6.69,-8.29,-8.11,0,*55
1517508317.32,12445,8.88,72140.8,-6.67,-8.25,-8.03,0,*55
1517508318.56,12446,8.88,72150.5,-6.67,-8.17,-8.03,0,*57
1517508319.84,12447,8.88,72150.5,-6.67,-8.11,-7.99,0,*5C
1517508321.12,12448,8.88,72148.3,-6.67,-8.11,-7.99,0,*53
1517508322.4,12449,8.88,72150.8,-6.67,-8.11,-7.99,0,*52
1517508323.62,12450,8.88,72144.3,-6.69,-8.17,-7.95,0,*5E
1517508324.84,12451,8.94,72150.3,-6.69,-8.17,-8.03,0,*5F
1517508326.11,12452,8.88,72144.0,-6.67,-8.03,-7.99,0,*5B
1517508327.39,12453,8.94,72146.3,-6.67,-7.99,-7.91,0,*5E
1517508328.64,12454,8.94,72138.5,-6.67,-7.91,-7.87,0,*56
1517508329.91,12455,8.88,72138.3,-6.67,-7.91,-7.77,0,*58
1517508331.16,12456,8.88,72136.5,-6.67,-7.87,-7.77,0,*5C
1517508332.41,12457,8.88,72136.8,-6.67,-7.87,-7.77,0,*5D
1517508333.69,12458,8.88,72144.8,-6.67,-7.91,-7.77,0,*55
1517508334.94,12459,8.94,72142.0,-6.67,-7.99,-7.87,0,*53
1517508336.21,12460,8.94,72136.8,-6.67,-7.91,-7.77,0,*5E
1517508337.47,12461,8.88,72130.3,-6.67,-7.87,-7.73,0,*5C
1517508338.72,12462,8.88,72130.3,-6.67,-7.77,-7.87,0,*5B
1517508339.97,12463,8.88,72128.0,-6.67,-7.91,-7.87,0,*52
1517508341.22,12464,8.88,72124.3,-6.67,-7.91,-7.87,0,*55
1517508342.45,12465,8.88,72124.8,-6.65,-7.91,-7.87,0,*56
1517508343.7,12466,8.88,72128.5,-6.67,-7.87,-7.73,0,*5B
1517508344.97,12467,8.88,72128.3,-6.67,-7.77,-7.73,0,*55
1517508346.2,12468,8.88,72132.3,-6.65,-7.87,-7.73,0,*57
1517508347.45,12469,8.88,72134.5,-6.69,-7.99,-7.91,0,*59
1517508348.72,12470,8.94,72136.0,-6.67,-7.91,-7.77,0,*5F
1517508350.0,12471,8.88,72134.8,-6.67,-7.77,-7.73,0,*52
1517508351.25,12472,8.94,72136.0,-6.67,-7.87,-7.77,0,*5A
1517508352.53,12473,8.88,72134.0,-6.67,-7.77,-7.73,0,*50
1517508353.77,12474,8.88,72134.8,-6.69,-7.69,-7.69,0,*5D
1517508355.03,12475,8.88,72132.8,-6.65,-7.73,-7.73,0,*50
1517508356.28,12476,8.94,72138.5,-6.67,-7.77,-7.87,0,*5E
1517508357.53,12477,8.94,72138.3,-6.65,-7.77,-7.73,0,*56
1517508358.81,12478,8.88,72136.3,-6.67,-7.77,-7.73,0,*5B
1517508360.06,12479,8.88,72132.5,-6.65,-7.77,-7.77,0,*5C
1517508361.34,12480,8.94,72138.8,-6.67,-7.73,-7.73,0,*58
1517508362.6,12481,8.88,72136.3,-6.65,-7.73,-7.73,0,*5B
1517508363.85,12482,8.88,72140.0,-6.67,-7.77,-7.87,0,*55
1517508365.08,12483,8.94,72142.5,-6.67,-7.87,-7.87,0,*5B
1517508366.33,12484,8.88,72142.8,-6.67,-7.77,-7.87,0,*53
1517508367.56,12485,8.94,72142.0,-6.67,-7.87,-7.87,0,*5D
1517508368.84,12486,8.94,72142.3,-6.67,-7.77,-7.77,0,*5E
1517508370.09,12487,8.88,72138.5,-6.65,-7.77,-7.77,0,*5D
1517508371.34,12488,8.88,72140.5,-6.67,-7.87,-7.77,0,*5F
1517508372.59,12489,8.88,72140.3,-6.67,-7.87,-7.73,0,*5A
1517508373.82,12490,8.88,72140.3,-6.65,-7.77,-7.87,0,*54
1517508375.08,12491,8.88,72138.5,-6.65,-7.73,-7.73,0,*5A
1517508376.33,12492,8.88,72142.5,-6.67,-7.87,-7.73,0,*50
1517508377.58,12493,8.88,72142.0,-6.65,-7.77,-7.77,0,*58
1517508378.83,12494,8.88,72142.0,-6.67,-7.77,-7.87,0,*52
1517508380.11,12495,8.88,72142.5,-6.67,-7.77,-7.77,0,*5C
1517508381.36,12496,8.94,72144.5,-6.67,-7.77,-7.87,0,*50
1517508382.61,12497,8.88,72144.8,-6.67,-7.87,-7.77,0,*51
1517508383.86,12498,8.88,72142.5,-6.65,-7.77,-7.73,0,*57
1517508385.14,12499,8.94,72144.8,-6.67,-7.73,-7.65,0,*57
1517508386.43,12500,8.88,72144.8,-6.67,-7.73,-7.65,0,*56
1517508387.71,12501,8.88,72140.0,-6.67,-7.73,-7.73,0,*50
1517508388.99,12502,8.88,72142.8,-6.67,-7.65,-7.73,0,*54
1517508390.24,12503,8.88,72140.8,-6.65,-7.73,-7.65,0,*57
1517508391.53,12504,8.94,72146.8,-6.67,-7.65,-7.61,0,*51
1517508392.78,12505,8.88,72142.8,-6.65,-7.65,-7.61,0,*52
1517508394.06,12506,8.88,72142.0,-6.67,-7.65,-7.61,0,*53
1517508395.28,12507,8.88,72144.3,-6.65,-7.65,-7.53,0,*51
1517508396.57,12508,8.88,72144.8,-6.67,-7.73,-7.65,0,*5E
1517508397.82,12509,8.88,72140.5,-6.65,-7.73,-7.73,0,*5A
1517508399.07,12510,8.88,72146.5,-6.65,-7.77,-7.65,0,*51
1517508400.32,12511,8.88,72142.8,-6.65,-7.77,-7.65,0,*50
1517508401.6,12512,8.88,72146.3,-6.67,-7.77,-7.65,0,*51
1517508402.82,12513,8.88,72148.3,-6.65,-7.87,-7.73,0,*5A
1517508404.02,12514,8.88,72148.5,-6.65,-7.87,-7.87,0,*56
1517508405.25,12515,8.88,72150.8,-6.67,-7.87,-7.87,0,*55
1517508406.5,12516,8.88,72148.8,-6.65,-7.77,-7.73,0,*50
1517508407.73,12517,8.88,72150.3,-6.67,-7.87,-7.87,0,*57
1517508408.96,12518,8.94,72154.8,-6.67,-7.87,-7.87,0,*58
1517508410.19,12519,8.88,72154.3,-6.65,-7.87,-7.73,0,*50
1517508411.44,12520,8.88,72160.5,-6.67,-7.87,-7.73,0,*58
1517508412.67,12521,8.88,72160.3,-6.67,-7.87,-7.87,0,*52
1517508413.92,12522,8.88,72164.5,-6.67,-7.87,-7.77,0,*5E
1517508415.2,12523,8.88,72164.0,-6.67,-7.77,-7.77,0,*50
1517508416.44,12524,8.88,72166.8,-6.65,-7.77,-7.65,0,*56
1517508417.7,12525,8.88,72168.5,-6.67,-7.87,-7.77,0,*59
1517508418.97,12526,8.88,72164.5,-6.67,-7.77,-7.73,0,*51
1517508420.23,12527,8.88,72160.0,-6.67,-7.87,-7.77,0,*5B
1517508421.48,12528,8.88,72160.5,-6.65,-7.73,-7.73,0,*59
1517508422.76,12529,8.94,72160.5,-6.67,-7.65,-7.73,0,*5D
1517508424.02,12530,8.88,72164.0,-6.65,-7.73,-7.65,0,*57
1517508425.27,12531,8.88,72168.0,-6.65,-7.73,-7.65,0,*56
1517508426.55,12532,8.88,72168.0,-6.67,-7.73,-7.65,0,*57
1517508427.81,12533,8.88,72164.5,-6.65,-7.65,-7.65,0,*53
1517508429.06,12534,8.94,72164.8,-6.65,-7.77,-7.77,0,*54
1517508430.31,12535,8.88,72164.0,-6.65,-7.77,-7.73,0,*51
1517508431.56,12536,8.88,72160.0,-6.65,-7.65,-7.65,0,*56
1517508432.84,12537,8.88,72164.5,-6.67,-7.73,-7.65,0,*52
1517508434.09,12538,8.94,72164.0,-6.65,-7.73,-7.65,0,*5F
1517508435.35,12539,8.88,72178.0,-6.65,-7.73,-7.61,0,*5A
1517508436.61,12540,8.88,72174.5,-6.65,-7.73,-7.61,0,*54
1517508437.84,12541,8.88,72166.8,-6.67,-7.87,-7.87,0,*54
1517508439.09,12542,8.88,72166.0,-6.67,-7.87,-7.77,0,*58
1517508440.35,12543,8.88,72164.8,-6.65,-7.73,-7.73,0,*54
1517508441.6,12544,8.88,72168.0,-6.67,-7.87,-7.73,0,*5A
1517508442.86,12545,8.88,72166.3,-6.65,-7.73,-7.77,0,*56
1517508444.11,12546,8.88,72152.5,-6.67,-7.87,-7.77,0,*5C
1517508445.36,12547,8.88,72152.5,-6.67,-7.77,-7.87,0,*5D
1517508446.64,12548,8.88,72156.5,-6.67,-7.77,-7.77,0,*5D
1517508447.89,12549,8.88,72156.0,-6.65,-7.77,-7.77,0,*5E
1517508449.14,12550,8.88,72152.5,-6.65,-7.77,-7.73,0,*52
1517508450.39,12551,8.88,72154.3,-6.67,-7.87,-7.73,0,*5E
1517508451.67,12552,8.88,72128.0,-6.67,-7.77,-7.77,0,*56
1517508452.92,12553,8.88,72124.3,-6.65,-7.77,-7.73,0,*51
1517508454.17,12554,8.88,72126.8,-6.65,-7.77,-7.73,0,*56
1517508455.45,12555,8.88,72128.5,-6.67,-7.73,-7.65,0,*56
1517508456.73,12556,8.88,72132.5,-6.67,-7.77,-7.73,0,*56
1517508457.98,12557,8.88,72132.0,-6.67,-7.87,-7.77,0,*5C
1517508459.26,12558,8.88,72132.0,-6.67,-7.77,-7.77,0,*5C
1517508460.51,12559,8.88,72130.8,-6.67,-7.77,-7.87,0,*52
1517508461.76,12560,8.88,72130.8,-6.65,-7.77,-7.73,0,*51
1517508463.01,12561,8.88,72128.0,-6.67,-7.87,-7.73,0,*5D
1517508464.29,12562,8.88,72124.8,-6.67,-7.77,-7.73,0,*51
1517508465.57,12563,8.88,72132.8,-6.67,-7.77,-7.73,0,*50
1517508466.82,12564,8.88,72130.5,-6.67,-7.87,-7.73,0,*58
1517508468.09,12565,8.88,72128.5,-6.67,-7.77,-7.77,0,*52
1517508469.37,12566,8.88,72130.0,-6.67,-7.77,-7.73,0,*55
1517508470.6,12567,8.88,72134.3,-6.65,-7.87,-7.65,0,*5E
1517508471.87,12568,8.88,72134.0,-6.67,-7.77,-7.73,0,*5B
1517508473.1,12569,8.88,72130.8,-6.65,-7.87,-7.73,0,*57
1517508474.37,12570,8.88,72126.5,-6.67,-7.77,-7.65,0,*55
1517508475.62,12571,8.88,72128.0,-6.65,-7.77,-7.77,0,*55
1517508476.87,12572,8.88,72130.0,-6.65,-7.77,-7.77,0,*56
1517508478.1,12573,8.88,72128.3,-6.65,-7.87,-7.73,0,*5C
1517508479.38,12574,8.88,72124.3,-6.67,-7.73,-7.73,0,*52
1517508480.67,12575,8.88,72122.3,-6.67,-7.73,-7.73,0,*53
1517508481.95,12576,8.88,72122.0,-6.67,-7.73,-7.73,0,*50
1517508483.23,12577,8.88,72130.8,-6.67,-7.73,-7.73,0,*51
1517508484.43,12578,8.88,72134.3,-6.65,-7.87,-7.87,0,*5C
1517508485.71,12579,8.88,72132.8,-6.67,-7.77,-7.77,0,*5F
1517508486.96,12580,8.88,72136.5,-6.67,-7.87,-7.77,0,*56
1517508488.24,12581,8.88,72128.5,-6.67,-7.77,-7.77,0,*58
1517508489.49,12582,8.88,72128.3,-6.67,-7.87,-7.73,0,*50
1517508490.74,12583,8.88,72128.8,-6.67,-7.87,-7.77,0,*55
1517508492.02,12584,8.88,72132.3,-6.67,-7.77,-7.77,0,*5D
1517508493.27,12585,8.88,72132.8,-6.67,-7.87,-7.77,0,*53
1517508494.5,12586,8.88,72136.3,-6.67,-7.87,-7.87,0,*5F
1517508495.78,12587,8.88,72142.0,-6.67,-7.77,-7.77,0,*5E
1517508497.0,12588,8.88,72146.0,-6.65,-7.87,-7.73,0,*58
1517508498.28,12589,8.88,72142.5,-6.67,-7.77,-7.73,0,*54
1517508499.56,12590,8.88,72142.5,-6.67,-7.77,-7.73,0,*5C
1517508500.81,12591,8.88,72144.3,-6.67,-7.87,-7.73,0,*52
1517508502.09,12592,8.88,72142.0,-6.67,-7.77,-7.65,0,*59
1517508503.37,12593,8.88,72140.0,-6.67,-7.73,-7.65,0,*5C
1517508504.65,12594,8.88,72142.3,-6.67,-7.73,-7.65,0,*5B
1517508505.91,12595,8.88,72140.8,-6.65,-7.73,-7.65,0,*58
1517508507.16,12596,8.88,72138.3,-6.65,-7.73,-7.65,0,*5B
1517508508.44,12597,8.88,72136.3,-6.67,-7.77,-7.73,0,*5B
1517508509.69,12598,8.88,72138.0,-6.65,-7.73,-7.73,0,*52
1517508510.97,12599,8.88,72140.0,-6.67,-7.65,-7.73,0,*56
1517508512.22,12600,8.88,72140.5,-6.65,-7.77,-7.77,0,*50
1517508513.48,12601,8.88,72144.3,-6.65,-7.73,-7.65,0,*56
1517508514.76,12602,8.88,72146.3,-6.67,-7.77,-7.73,0,*54
1517508516.04,12603,8.88,72148.5,-6.67,-7.73,-7.65,0,*56
1517508517.32,12604,8.88,72144.8,-6.67,-7.65,-7.61,0,*52
1517508518.6,12605,8.88,72142.8,-6.67,-7.65,-7.61,0,*53
1517508519.86,12606,8.88,72140.8,-6.65,-7.61,-7.61,0,*56
1517508521.1,12607,8.88,72144.5,-6.67,-7.61,-7.53,0,*54
1517508522.33,12608,8.88,72148.3,-6.65,-7.53,-7.61,0,*59
1517508523.61,12609,8.88,72148.8,-6.67,-7.61,-7.61,0,*5B